STARLINK-36954, 68057

Orbit data source: Space-Track

STARLINK-36954, 68057 is a payload satellite owned by SpaceX/Seattle (US) in LEO that was launched on Mon, 02 Mar 2026 UTC via an FALCON 9 launch vehicle from the Air Force Eastern Test Range (AFETR). Payload-class satellites include a variety of spacecraft equipped with specific instruments for various scientific and technological missions. These include communications satellites like Starlink; space stations such as the ISS; scientific satellites like the Hubble; Earth observation satellites from companies like Planet Labs, Umbra, and HawkEye 360; GPS; miniature CubeSats for education and research; and military/defense satellites.

Loading next visibility...
Identifier
68057, 2026-041T
Orbit
LEO
Country
Flag of USUS
Related business
Manufacturer
SpaceX/Seattle
Mission
Operational Commercial Communications
Bus & Motor
STARLINK V2MO, Unknown motor
Mass
575 kg wet, ~530 kg dry
Launch date (UTC)
2026-03-02 (4 months ago)
Launch vehicle
FALCON 9
Launch site
Air Force Eastern Test Range (AFETR)
Object type
Payload
Rocket body
Debris
Shape & HBR
Box + 2 Pan, 17.7 m
Radar Cross Section
36.964 m², Large (>1 m²)

Expand to show TLE details & history
Last TLE update: 1 day ago

TLE from 1 day ago
0 STARLINK-36954
1 68057U 26041T   26170.84546500  .00027334  00000-0  81684-3 0  9996
2 68057  53.1573 292.9012 0001199  94.2313 265.8826 15.34412540 17069
Epoch: 2026-06-19T20:17Z
TLE epoch observation values (Epoch: 2026-06-19T20:17:28.175Z)
Latitude
-0.00009°
Longitude
80.46514°
Altitude
463.626 km
Speed
7.636 km/s
True Right ascension
19h 31m 36s
True Declination
0° 00' 00"
Sunlit
Object was in full shadow at epoch
Visualization orbit readout
Latitude
Unknown
Longitude
Unknown
Altitude
Unknown
Speed
Unknown
Apparent Right ascension
Unknown
Apparent Declination
Unknown
Sunlit
N/A
Visualization observer readout
Local Sidereal Time
07:20:11
Azimuth
Unknown
Elevation
Unknown
Doppler factor
Unknown
Orbital elements
Apogee altitude
463.744 km
Perigee altitude
462.103 km
Semi-major axis
6,841.06 km
Eccentricity
0.00012
Inclination
53.1573°
RAAN
292.9012°
Arg. of periapsis
94.2313°
True anomaly
265.8689°
Mean anomaly
265.8826°
Eccentric anomaly
265.87575°
Mean motion
3.83582 °/min
Orbital period
93.85 mins
BSTAR
0.00081684
Loading maneuver chart data...
Computing Atmospheric mass density...
Loading historical data...
Loading historical data...
Loading historical data...
Loading historical data...
Loading historical data...
Loading historical data...
Loading historical data...

Documentation

Showing up to 5 results
|